Weather History for Nanjing, JS

Change the Weather History Date:

Wednesday, December 18, 2013

  Actual Average Record
Temperature  
Mean Temperature 42 °F -  
Max Temperature 48 °F - - ()
Min Temperature 35 °F - - ()
Degree Days  
Heating Degree Days 24    
Moisture  
Dew Point 32 °F    
Average Humidity 72    
Maximum Humidity 93    
Minimum Humidity 34    
Precipitation  
Precipitation 0.00 in - - ()
Sea Level Pressure  
Sea Level Pressure 30.37 in    
Wind  
Wind Speed 5 mph ()    
Max Wind Speed 11 mph    
Max Gust Speed -    
Visibility 3.3 miles    
Events      
T = Trace of Precipitation, MM = Missing Value Source: Averaged Metar Reports

Daily Weather History Graph

Daily Weather History Graph

Search for Another Location

Airport:

Trip Planner

Search our weather history database for the weather conditions in past years. The results will help you decide how hot, cold, wet, or windy it might be!

Date:

Astronomy

Dec. 18, 2013 Rise Set
Actual Time 6:58 AM CST 5:02 PM CST
Civil Twilight 6:31 AM CST 5:29 PM CST
Nautical Twilight 6:01 AM CST 6:00 PM CST
Astronomical Twilight 5:31 AM CST 6:30 PM CST
Moon 6:00 PM CST (12/18) 7:17 AM CST (12/18)
Length of Visible Light 10h 57m
Length of Day
10h 03m
Waxing Gibbous, 99% of the Moon is Illuminated
Dec 18
Waxing Gibbous
Dec 25
Last Quarter
Jan 1
New
Jan 8
First Quarter
Jan 16
Full

Hourly Weather History & Observations

Time (CST) Temp. Windchill Dew Point Humidity Pressure Visibility Wind Dir Wind Speed Gust Speed Precip Events Conditions
12:00 AM 39.2 °F - 37.4 °F 93% 30.30 in 2.8 mi WNW 2.2 mph - N/A   Mist
1:00 AM 37.4 °F - 35.6 °F 93% 30.30 in 3.1 mi NW 2.2 mph - N/A   Mist
2:00 AM 40 °F - 36 °F 80% 30.34 in 6 mi NNW 8.9 mph - -   Clear
2:00 AM 35.6 °F - 33.8 °F 93% 30.33 in 3.1 mi WNW 2.2 mph - N/A   Mist
3:00 AM 35.6 °F 31.8 °F 33.8 °F 93% 30.33 in 3.1 mi NNW 4.5 mph - N/A   Mist
4:00 AM 37.4 °F 33.9 °F 35.6 °F 93% 30.33 in 3.7 mi North 4.5 mph - N/A   Unknown
5:00 AM 38 °F - 34 °F 80% 30.35 in 4 mi North 8.9 mph - -   Mist
5:00 AM 35.6 °F 31.8 °F 33.8 °F 93% 30.33 in 3.7 mi North 4.5 mph - N/A   Unknown
6:00 AM 35.6 °F 31.8 °F 33.8 °F 93% 30.36 in 3.1 mi North 4.5 mph - N/A   Mist
7:00 AM 35.6 °F - 32.0 °F 87% 30.36 in 1.9 mi North 2.2 mph - N/A   Mist
8:00 AM 37 °F - 33 °F 81% 30.42 in 4 mi NNW 8.9 mph - -   Mist
8:00 AM 35.6 °F - 32.0 °F 87% 30.39 in 1.6 mi Variable 2.2 mph - N/A   Mist
9:00 AM 39.2 °F 36.0 °F 35.6 °F 87% 30.42 in - North 4.5 mph - N/A   Mist
10:00 AM 42.8 °F 38.7 °F 33.8 °F 70% 30.42 in 3.1 mi North 6.7 mph - N/A   Haze
11:00 AM 45 °F - 32 °F 48% 30.41 in 5 mi North 11.2 mph - -   Haze
11:00 AM 44.6 °F 40.8 °F 33.8 °F 66% 30.39 in 3.1 mi NNE 6.7 mph - N/A   Haze
12:00 PM 46.4 °F 42.0 °F 30.2 °F 53% 30.36 in 5.0 mi NNE 8.9 mph - N/A   Partly Cloudy
1:00 PM 48.2 °F - 28.4 °F 46% 30.36 in 5.6 mi North 8.9 mph - N/A   Mostly Cloudy
2:00 PM 47 °F - 28 °F 34% 30.36 in 6 mi North 11.2 mph - -   Clear
2:00 PM 46.4 °F 42.0 °F 28.4 °F 50% 30.33 in 3.7 mi NNW 8.9 mph - N/A   Mostly Cloudy
3:00 PM 46.4 °F 42.0 °F 28.4 °F 50% 30.33 in 3.7 mi NNW 8.9 mph - N/A   Partly Cloudy
4:00 PM 44.6 °F 40.8 °F 28.4 °F 53% 30.33 in 2.8 mi North 6.7 mph - N/A   Haze
5:00 PM 43 °F - 29 °F 45% 30.37 in 5 mi North 6.7 mph - -   Haze
5:00 PM 42.8 °F - 28.4 °F 57% 30.36 in 2.5 mi Variable 2.2 mph - N/A   Haze
6:00 PM 41.0 °F 38.1 °F 30.2 °F 65% 30.36 in 2.2 mi NNE 4.5 mph - N/A   Haze
7:00 PM 41.0 °F 36.5 °F 30.2 °F 65% 30.36 in 2.5 mi NNE 6.7 mph - N/A   Haze
8:00 PM 38 °F - 32 °F 70% 30.41 in 3 mi North 4.5 mph - -   Haze
8:00 PM 39.2 °F 36.0 °F 30.2 °F 70% 30.39 in 2.2 mi North 4.5 mph - N/A   Haze
9:00 PM 37.4 °F 33.9 °F 32.0 °F 81% 30.39 in 1.6 mi North 4.5 mph - N/A   Scattered Clouds
10:00 PM 35.6 °F 31.8 °F 30.2 °F 81% 30.42 in 1.6 mi North 4.5 mph - N/A   Scattered Clouds
11:00 PM 37 °F - 29 °F 64% 30.45 in 2 mi North 8.9 mph - -   Haze
11:00 PM 35.6 °F 31.8 °F 30.2 °F 81% 30.42 in 1.6 mi North 4.5 mph - N/A   Scattered Clouds